Content
SEND FEEDBACK

Daily
Averages
Monthly
Summary
Philippines

OLONGAPO, PHILIPPINES


Home > Asia > Philippines
Elevation: 55 feet     Latitude: 14 48N     Longitude: 120 16E

WEATHER
 
SELECT A DAY
Number of Records: 138,475;   Date Range: 7/31/96 - 9/29/14
 
SHARE

PRINT THIS DATA

[ ← Previous Day ]
WEATHER ALMANAC - JULY 3, 2013
[ Next Day → ]
[ °C ]   °F
Weather ElementAverageHighLow
Temperature81.6 °F88 °F (5:00 pm)78.8 °F (2:00 am)
Dewpoint76.7 °F79 °F (5:00 pm)75.2 °F (2:00 am)
Humidity84.3 %94 % (6:00 am)67 % (5:00 pm)
Barometer29.78 in29.83 in (9:00 am)29.71 in (4:00 pm)
Wind Speed7 mph13.8 mph (4:00 pm)
Weather ElementAverage
Visibility6.8 mi
Wind DirectionE (88.5 °)

Weather ElementTotal
Precipitation---
Cooling Degree Days18.4 (Base 65)
Growing Degree Days33.4 (Base 50)
Averaged from 26 records on July 3, 2013
WEATHER CONDITIONS BREAKOUT
WIND DIRECTION BREAKOUT
WEATHER BY HOUR - JULY 3, 2013
[ °C ]   °F
Local TimeTemperatureDewpointHumidityBarometerVisibilityWind DirectionWind SpeedGust SpeedPrecipitationEventsConditions
2:00 AM79.0 °F76.0 °F90 %29.77 in7.0 miNNW (340°)4.5 mphHaze
2:00 AM78.8 °F75.2 °F89 %29.77 in6.2 miNNW (340°)4.6 mphPartly Cloudy
5:00 AM79.0 °F76.0 °F90 %29.76 in7.0 miEast (90°)2.2 mphHaze
5:00 AM78.8 °F75.2 °F89 %29.74 in6.2 miVariable1.2 mphPartly Cloudy
6:00 AM78.8 °F77.0 °F94 %29.77 in6.2 miVariable3.5 mphMostly Cloudy
7:00 AM80.6 °F77.0 °F89 %29.80 in6.2 miENE (60°)4.6 mphMostly Cloudy
8:00 AM82.4 °F77.0 °F84 %29.80 in6.2 miVariable3.5 mphMostly Cloudy
8:00 AM82.0 °F78.0 °F83 %29.82 in12.0 miNE (50°)4.5 mphHaze
9:00 AM82.4 °F77.0 °F84 %29.83 in6.2 miEast (90°)10.4 mphRainLight Rain Showers
10:00 AM80.6 °F77.0 °F89 %29.83 in6.2 miNE (40°)5.8 mphRainLight Rain Showers
11:00 AM79.0 °F77.0 °F90 %29.83 in6.0 miEast (90°)8.9 mphRainLight Rain
11:00 AM78.8 °F75.2 °F89 %29.83 in5.6 miEast (90°)9.2 mphRainLight Rain
12:00 PM80.6 °F75.2 °F84 %29.83 in5.6 miEast (80°)8.1 mphRainLight Rain
1:00 PM80.6 °F77.0 °F89 %29.77 in5.6 miEast (80°)8.1 mphRainLight Rain
2:00 PM84.0 °F77.0 °F75 %29.76 in11.0 miEast (100°)8.9 mphRainLight Rain
2:00 PM84.2 °F77.0 °F79 %29.74 in6.2 miEast (100°)9.2 mphOvercast
4:00 PM86.0 °F78.8 °F79 %29.71 in6.2 miEast (90°)13.8 mphOvercast
5:00 PM88.0 °F79.0 °F67 %29.74 in11.0 miEast (90°)11.2 mphHaze
5:00 PM87.8 °F77.0 °F70 %29.74 in6.2 miEast (90°)11.5 mphMostly Cloudy
7:00 PM82.4 °F78.8 °F89 %29.77 in6.2 miENE (70°)6.9 mphMostly Cloudy
8:00 PM82.4 °F75.2 °F79 %29.80 in6.2 miEast (80°)4.6 mphMostly Cloudy
8:00 PM82.0 °F76.0 °F79 %29.80 in7.0 miEast (80°)4.5 mphScattered Clouds
9:00 PM80.6 °F77.0 °F89 %29.77 in6.2 miENE (70°)6.9 mphScattered Clouds
10:00 PM80.6 °F77.0 °F89 %29.77 in6.2 miVariable3.5 mphPartly Cloudy
11:00 PM82.0 °F77.0 °F80 %29.80 in7.0 miEast (90°)11.2 mphHaze
11:00 PM80.6 °F75.2 °F84 %29.80 in6.2 miEast (90°)11.5 mphPartly Cloudy
Hourly data recorded from RPLB, located miles away from Olongapo, Philippines







STORIES FROM OUR PARTNERS